Temperature
20 20 19 19 18 18 20 21 21 21 21 20 20 21 20 20 20 20 19 20 20 20 20 19 19 19 20 20 20 20 20 19 19 19 19 19 19 19 19 19 19 19 19 19 18 18 18 18 18
20 20 19 19 18 19 20 21 21 21 20 20 20 21 20 20 19 19 19 20 20 20 20 19 19 19 20 20 20 20 19 19 19 19 19 19 19 19 19 19 19 19 19 18 18 18 18 18 18
20 19 19 17 19 19 21 21 20 21 20 20 20 20 20 19 19 19 20 20 20 20 20 20 19 19 20 20 20 19 19 19 19 19 19 19 19 19 19 19 19 19 18 18 18 18 18 18 18
20 20 19 18 20 20 21 21 21 21 20 20 20 19 20 20 20 20 20 20 20 20 20 19 19 19 19 19 19 19 19 19 19 19 19 19 19 18 18 18 18 18 18 18 18 18 18 18 18
20 19 18 18 19 20 21 21 21 21 20 20 20 19 19 20 20 21 20 20 20 20 19 19 19 19 19 19 19 19 19 19 19 19 18 18 18 18 18 18 18 18 18 18 18 18 18 18 18
20 18 18 18 20 21 21 21 21 20 20 20 20 19 19 20 21 20 20 20 20 19 19 19 19 19 19 19 19 19 19 19 19 18 18 18 18 18 18 18 18 18 18 18 18 18 18 18 17
19 17 18 20 20 21 21 20 20 20 20 19 20 19 19 19 20 20 20 20 19 19 19 19 19 19 19 19 19 19 19 19 18 18 18 18 18 18 18 18 18 18 18 18 18 18 18 18 17
20 17 19 19 20 21 21 20 19 19 19 20 20 19 18 19 19 20 19 19 19 19 19 19 19 19 19 19 19 18 18 18 18 18 18 18 18 18 18 18 17 18 18 18 18 18 18 18 17
21 17 18 20 21 21 20 19 19 19 19 19 19 19 20 19 19 19 19 18 18 18 19 19 19 19 19 18 18 18 18 18 18 18 18 18 18 18 17 17 17 17 17 18 17 17 17 17 17
20 17 20 21 22 21 20 20 19 19 18 18 19 19 19 19 19 19 19 18 18 18 18 19 19 18 18 18 18 18 18 18 17 17 17 17 17 17 17 17 17 17 17 17 17 17 17 17 17
20 19 21 22 22 21 20 20 19 19 18 18 19 19 19 18 19 19 19 19 19 19 18 18 18 18 18 18 18 18 18 17 17 17 17 17 17 17 17 17 17 17 17 17 17 17 17 17 17
20 21 22 22 22 21 20 19 19 19 19 19 19 19 18 18 18 19 19 19 19 19 19 18 18 18 18 18 18 17 17 17 17 17 17 17 17 17 17 17 17 17 17 17 17 17 17 17 17
22 22 22 22 21 21 20 19 19 18 19 19 19 18 18 18 18 18 19 19 19 19 18 18 18 18 18 18 17 17 17 17 17 17 17 17 17 17 17 17 17 17 17 17 16 17 17 17 17
23 22 22 21 21 20 19 19 18 18 18 18 18 18 18 18 18 18 18 18 18 18 18 18 18 18 18 18 17 17 17 17 17 16 16 16 16 16 16 16 16 16 16 16 16 16 16 16 16
23 21 21 21 20 20 20 19 18 18 18 18 18 18 18 18 18 18 18 18 18 18 18 18 18 18 17 17 17 17 17 17 16 16 16 16 16 16 16 16 15 15 15 15 15 16 16 16 16
22 21 21 21 20 20 20 19 19 18 18 17 17 17 17 17 18 18 18 18 18 18 18 18 18 17 17 17 17 17 17 16 16 16 16 15 15 15 15 15 15 15 15 15 15 15 15 15 15
21 21 21 21 21 20 19 19 18 18 17 17 17 17 17 17 17 18 17 17 17 17 18 17 17 17 17 17 17 17 16 16 16 15 15 15 15 14 14 14 14 14 14 14 15 15 15 15 15
22 21 21 21 21 20 19 19 18 18 17 17 17 17 17 17 17 17 17 17 17 17 17 17 17 17 17 17 17 16 16 16 15 15 15 14 14 14 14 14 14 14 14 14 14 14 14 14 15
22 22 21 21 21 20 19 18 18 17 17 17 17 17 17 17 17 17 17 17 17 17 17 17 17 17 17 17 17 16 16 16 15 15 14 14 14 14 14 14 14 14 14 14 14 14 14 14 14
22 21 21 21 21 20 19 19 18 17 17 17 17 17 17 17 17 17 17 17 17 17 17 17 17 17 17 17 17 16 16 15 15 15 14 14 14 13 13 13 13 13 13 13 13 13 14 14 14
22 21 21 21 20 19 19 19 18 18 17 17 17 17 17 17 17 17 17 17 17 17 17 17 17 17 17 17 17 16 16 15 15 15 14 14 14 13 13 13 13 13 13 13 13 13 13 13 13
22 22 22 21 19 18 18 18 18 18 17 17 17 17 17 17 17 17 17 17 17 17 17 17 17 17 17 17 17 16 16 16 15 15 14 14 14 13 13 13 13 13 13 13 13 13 13 13 13
22 20 20 19 18 17 17 17 17 17 18 17 17 17 17 18 18 18 18 18 17 17 17 17 17 17 17 17 17 16 16 15 15 15 14 14 14 13 13 13 12 12 12 12 12 13 13 13 13
21 19 18 16 16 18 18 17 18 17 18 18 18 18 18 18 18 18 18 18 18 18 18 17 17 18 17 17 17 16 16 16 15 15 15 14 14 14 13 13 13 12 12 12 12 12 12 12 12
21 19 18 19 17 18 18 17 17 18 18 18 18 19 19 19 18 18 18 18 18 18 18 18 18 18 18 17 17 16 16 16 16 15 15 14 14 14 14 13 13 12 12 12 12 12 12 12 12
20 20 19 20 19 18 18 17 18 19 20 20 20 20 20 19 19 19 19 19 19 19 19 18 18 18 18 18 17 17 16 16 16 15 15 15 14 14 14 14 13 13 12 12 12 12 12 12 11
20 19 18 17 18 18 18 18 19 19 19 19 19 19 20 20 20 20 20 20 20 19 19 19 19 19 18 18 18 17 17 16 16 15 15 15 15 14 14 14 13 13 13 12 12 12 12 11 11
21 18 16 17 18 19 19 19 18 20 20 19 18 19 21 21 21 21 20 20 20 20 20 20 19 19 19 18 18 17 17 17 16 16 15 15 15 15 15 14 14 13 13 13 12 12 12 12 11
21 19 16 15 16 17 19 19 19 19 19 19 19 21 22 22 22 22 21 21 21 21 20 20 20 19 19 19 18 18 17 17 17 16 16 16 16 15 15 15 14 14 13 13 13 12 12 12 12
21 20 17 18 18 16 17 18 19 18 19 19 20 21 22 23 23 23 22 22 21 21 21 21 20 20 20 19 19 18 18 17 17 17 17 17 16 16 15 15 15 14 14 13 13 13 12 12 12
Wind_Speed
8 5 1 1 3 4 1 1 2 2 2 2 2 3 2 1 2 3 1 7 13 12 14 18 18 18 19 18 18 18 17 17 16 15 14 13 12 11 11 10 10 10 10 10 9 10 10 10 10
5 2 1 3 4 3 2 2 3 3 3 4 2 2 2 1 2 4 4 7 12 12 14 16 18 18 18 18 17 17 16 16 15 14 13 12 11 10 10 9 9 8 8 8 9 9 9 9 9
4 1 3 4 3 2 3 3 5 3 3 3 2 1 2 1 3 5 6 11 10 10 13 17 19 18 18 17 17 16 15 15 14 13 12 11 10 9 9 8 8 7 7 7 7 8 8 8 8
2 3 4 4 1 3 3 4 5 6 3 2 3 1 1 0 3 7 14 12 11 8 12 17 19 18 17 17 16 16 15 14 13 12 11 10 9 9 8 7 7 6 6 6 6 6 6 6 6
3 4 4 3 3 3 1 3 6 6 5 5 6 3 1 2 8 15 14 13 11 8 11 16 19 18 17 16 16 15 14 13 12 11 10 9 8 8 7 7 7 6 5 5 5 5 5 5 5
4 4 4 1 4 2 1 1 3 4 3 4 5 4 1 3 12 14 13 12 9 9 9 14 18 18 17 16 16 15 14 13 12 11 9 8 7 7 6 5 6 6 5 5 4 3 4 3 3
4 4 1 3 3 3 1 0 2 4 4 4 4 4 2 5 9 12 12 11 9 7 8 9 13 15 16 16 15 14 13 12 11 10 8 7 6 6 6 6 6 6 5 5 4 4 3 2 2
4 4 1 3 4 4 1 1 1 3 3 2 3 4 4 6 10 11 11 10 9 6 6 7 10 11 12 13 13 13 12 11 9 8 7 6 5 4 4 5 5 6 6 6 5 5 4 3 2
4 3 2 5 5 4 3 2 2 1 2 1 1 1 4 12 13 13 11 9 8 8 5 5 7 9 10 10 11 11 10 9 8 6 5 4 2 1 1 3 5 5 5 6 6 6 4 3 2
4 3 7 5 5 4 4 4 4 4 3 2 1 2 9 14 14 14 14 13 11 10 7 5 6 7 8 8 8 8 7 7 7 5 5 5 4 2 1 1 2 3 4 3 4 4 4 3 1
6 7 5 4 3 4 4 3 3 5 4 5 7 10 12 15 13 12 12 11 10 9 8 6 6 6 6 6 7 7 8 7 7 6 6 6 6 5 4 4 3 2 1 0 0 0 1 1 1
5 6 5 3 2 3 4 3 2 3 2 2 6 11 12 13 13 12 12 10 8 9 8 6 6 6 6 7 7 7 7 7 6 6 6 6 5 4 4 4 4 4 3 2 2 1 1 1 1
5 3 1 1 3 3 4 2 0 1 1 3 7 9 11 11 10 8 9 8 8 8 7 7 6 6 6 7 6 7 7 7 7 8 7 7 5 3 4 4 5 5 4 3 2 2 2 1 1
3 1 1 1 2 2 4 1 1 2 2 4 6 7 8 9 8 8 9 8 8 7 7 6 7 6 7 5 5 6 7 8 8 7 7 8 7 5 4 3 4 4 4 4 4 3 2 2 2
1 2 2 0 1 2 4 1 3 3 4 4 4 5 5 6 6 7 8 9 9 8 7 7 7 7 7 7 6 7 8 8 7 6 7 8 7 6 5 4 3 4 5 5 5 4 4 3 2
3 3 2 3 2 3 4 4 3 4 5 4 4 4 4 4 5 6 6 7 7 7 7 7 8 8 8 6 6 7 8 7 6 6 6 7 7 7 6 4 3 5 5 5 4 3 3 3 3
4 2 4 4 2 3 4 5 2 4 5 4 4 5 6 6 5 5 6 7 7 7 8 7 8 8 8 6 6 6 7 6 5 5 5 5 6 7 7 5 4 6 6 4 3 3 2 2 2
5 5 4 4 2 3 2 4 2 3 5 5 5 5 5 7 7 6 6 8 7 6 6 7 8 7 7 6 5 4 4 3 3 3 3 5 5 6 7 5 5 6 4 4 4 4 4 2 2
5 4 5 4 1 2 2 4 3 3 4 5 5 5 5 5 5 5 6 8 8 6 6 7 8 7 7 5 4 4 3 2 1 1 2 3 4 5 6 4 5 4 4 3 3 2 4 4 3
4 3 4 2 2 1 1 3 3 3 5 6 7 7 8 7 7 7 8 8 9 9 8 7 8 8 7 5 4 3 3 2 2 1 1 2 3 4 4 4 3 3 4 4 4 3 2 3 4
2 4 4 2 2 4 3 4 2 1 1 3 4 5 6 10 11 10 10 9 10 10 11 10 9 8 7 6 5 4 4 3 2 1 1 2 3 3 4 4 4 3 3 3 3 3 3 2 3
4 3 3 3 3 3 3 3 5 2 2 4 6 6 7 8 9 9 10 10 11 12 10 8 8 7 6 7 6 6 5 4 5 3 3 2 3 3 4 4 4 3 2 2 2 2 2 3 2
3 4 5 4 4 2 3 0 7 1 4 6 7 8 8 8 9 10 11 11 11 10 9 8 7 7 6 7 7 6 4 4 3 2 3 2 2 3 4 5 5 4 2 2 2 2 2 2 2
6 6 7 6 5 2 2 1 6 4 6 5 6 8 9 9 9 9 9 8 8 8 8 8 8 7 7 7 7 7 7 6 5 4 4 3 2 2 4 6 5 4 3 3 3 2 3 2 2
5 6 5 6 5 5 2 2 8 7 6 7 8 9 9 10 10 10 10 9 9 9 9 9 9 8 8 8 8 8 8 8 8 6 6 4 3 3 5 5 5 4 5 4 4 3 2 3 2
4 7 6 4 4 5 2 4 7 6 5 5 6 8 8 9 10 12 12 11 11 11 10 10 10 10 9 9 9 8 8 6 6 6 6 6 5 5 4 6 6 6 6 5 4 3 3 3 3
6 3 5 6 2 2 5 7 8 2 2 4 6 8 10 11 12 12 12 12 12 11 12 12 12 11 10 10 9 8 8 8 7 7 6 5 5 4 5 6 6 6 6 6 5 4 4 4 4
5 8 6 5 3 3 6 5 5 5 5 5 7 10 11 11 11 11 12 12 12 12 11 10 11 12 11 10 10 9 9 9 8 7 7 7 6 5 6 6 6 6 6 6 5 5 5 5 5
4 5 5 5 4 5 3 7 6 8 8 9 10 10 11 12 13 12 12 11 11 10 9 10 10 10 10 11 10 9 9 9 8 8 8 8 7 7 7 7 7 7 7 6 6 7 6 6 6
4 6 7 4 4 4 4 8 6 6 6 7 9 9 9 11 11 11 11 10 10 10 10 11 11 11 11 11 10 11 9 9 9 10 10 8 8 8 8 7 7 8 8 7 8 8 8 8 8
Wind_Direction
155 145 126 72 57 47 324 223 151 167 157 149 128 126 132 177 233 273 62 134 134 140 151 154 151 145 140 136 133 132 131 130 130 129 129 130 131 130 129 127 124 122 118 115 113 111 107 104 99
143 155 56 56 74 40 299 189 163 185 169 147 113 107 90 83 96 114 127 137 134 137 146 153 152 147 143 139 137 136 135 134 134 134 134 134 135 135 133 131 128 125 122 119 116 114 111 106 99
156 124 79 69 84 178 255 206 177 153 129 132 105 55 69 110 131 142 145 137 125 131 143 154 152 149 146 143 141 139 138 138 139 139 140 141 142 142 140 139 136 132 127 124 120 116 112 107 98
118 50 55 65 292 243 240 231 165 153 133 107 111 86 337 1 154 144 139 136 129 127 143 154 152 150 148 145 142 142 142 144 145 145 147 149 149 150 150 152 148 143 140 135 128 123 117 109 97
65 74 54 21 281 269 246 198 169 165 163 155 146 142 339 2 117 132 138 140 136 131 141 152 151 149 148 147 146 146 147 148 149 150 153 156 158 159 160 163 162 158 155 149 143 136 128 117 101
58 64 72 308 277 268 267 219 144 133 149 145 144 147 74 132 132 139 140 137 136 134 137 149 151 149 149 149 150 150 150 152 154 156 158 162 165 169 173 177 179 179 177 176 172 161 148 137 113
104 98 167 242 267 277 253 81 153 152 156 167 160 137 148 155 141 136 135 131 130 128 127 134 145 149 151 151 150 151 153 154 156 158 160 165 171 178 186 193 199 200 200 203 204 203 191 180 154
134 106 285 254 241 259 196 129 159 142 158 149 157 156 179 159 134 126 126 126 128 121 118 122 130 138 143 148 152 152 152 154 155 158 161 166 171 183 199 210 218 218 218 221 222 222 219 219 214
113 76 253 234 218 238 174 160 163 108 135 167 255 197 146 134 132 131 133 135 141 143 128 126 125 128 134 142 150 149 150 150 149 149 153 143 128 138 226 229 226 227 228 230 231 231 231 231 240
123 175 236 226 209 202 178 181 172 155 167 195 201 135 134 140 147 151 156 158 160 160 155 141 134 134 136 141 128 122 119 118 113 104 99 95 94 81 82 286 241 235 230 234 237 237 236 231 228
175 209 248 257 218 171 171 176 170 166 198 210 185 161 152 154 159 163 164 164 164 160 161 153 141 138 134 124 119 109 103 101 97 96 99 93 79 64 57 54 38 29 4 54 20 259 214 183 192
193 245 237 251 152 142 163 162 183 198 225 178 152 149 154 159 165 170 166 164 159 160 163 154 144 136 133 125 118 112 107 103 97 97 101 96 80 63 51 50 43 46 52 60 49 42 69 102 170
214 251 251 153 108 124 122 134 158 247 180 122 129 137 156 164 169 163 155 159 159 163 162 156 147 142 135 123 122 117 115 113 108 100 93 95 89 73 62 55 50 47 57 69 71 74 74 67 45
236 196 76 82 110 129 124 78 34 234 148 133 140 148 159 164 161 156 153 161 167 167 161 152 144 138 133 125 121 123 124 119 108 100 96 93 91 84 73 61 54 46 53 73 83 81 82 68 54
71 61 16 31 130 138 121 293 234 180 139 144 149 146 151 154 154 161 162 166 172 167 155 151 143 136 132 129 130 130 130 124 114 108 102 97 93 89 87 75 58 47 63 80 82 76 70 63 53
38 49 335 270 174 163 149 261 233 145 150 163 165 161 160 158 156 152 157 159 162 155 150 154 148 138 133 131 129 132 134 127 121 115 106 100 95 97 90 78 61 59 74 80 81 68 67 54 46
23 335 284 292 199 157 180 255 248 159 166 182 181 181 171 163 156 149 150 155 160 161 153 148 136 139 135 127 123 127 130 126 125 120 112 105 101 99 92 81 68 72 72 65 77 62 68 55 27
276 285 277 274 253 152 197 264 271 187 185 191 190 187 185 173 171 153 149 153 154 150 145 140 136 135 127 116 105 97 99 102 112 120 124 118 109 103 94 81 68 71 72 64 68 72 57 51 10
238 249 267 270 234 145 219 261 263 200 189 194 197 197 199 182 154 143 146 148 146 144 152 157 152 150 142 135 132 129 136 138 137 156 151 137 124 114 99 90 72 68 74 72 79 86 60 35 8
214 241 260 298 41 95 286 286 278 207 209 204 202 205 197 177 166 162 160 160 164 166 174 175 174 168 165 150 140 137 133 141 154 142 159 179 158 142 119 108 96 85 86 71 62 76 82 35 24
229 210 231 211 52 42 13 333 299 267 250 214 212 205 194 187 181 178 175 174 173 181 187 187 187 177 168 143 118 99 83 74 86 154 215 219 194 172 141 132 120 106 100 94 77 80 99 88 34
261 260 170 122 88 341 33 309 292 261 263 229 217 200 195 191 181 179 180 181 183 189 187 186 184 178 169 156 154 152 159 174 199 194 201 216 205 191 173 160 149 135 122 115 99 88 91 106 70
181 66 85 83 96 23 16 283 292 308 257 243 223 209 197 191 185 186 185 186 187 184 184 184 181 183 175 170 170 163 166 177 169 167 192 212 230 216 198 184 172 160 153 145 124 111 104 103 113
120 73 57 53 64 353 296 182 285 243 226 228 214 207 198 190 189 191 185 181 186 185 183 180 183 193 183 176 175 178 177 172 168 183 196 211 223 233 215 196 188 182 176 174 167 153 139 136 128
89 84 25 357 4 273 279 243 255 253 230 206 200 203 199 187 186 189 190 192 195 193 191 187 189 200 191 184 188 191 187 180 187 191 196 197 204 216 216 197 192 194 198 195 182 178 182 176 171
162 140 156 210 246 289 321 256 259 260 239 212 192 189 189 187 191 196 198 199 202 202 198 193 197 204 194 193 199 196 189 187 196 196 192 198 206 214 208 199 201 205 202 200 193 198 207 198 200
136 163 157 134 146 297 292 288 303 265 202 188 184 183 194 198 198 202 202 202 205 205 204 200 201 205 200 200 197 196 195 195 200 200 197 203 211 218 209 204 204 209 209 206 196 212 219 208 216
132 141 103 118 150 268 299 290 262 256 219 195 194 202 206 202 203 206 206 207 209 209 206 200 202 206 203 198 199 204 201 202 201 193 201 207 212 213 205 208 212 214 215 212 207 221 224 219 227
121 106 107 115 152 163 261 277 234 225 213 205 211 210 207 203 205 207 209 209 207 206 201 201 204 204 201 201 201 201 202 201 197 202 209 208 209 209 211 212 213 217 221 217 214 225 224 227 236
168 165 148 154 211 175 188 267 275 237 228 216 221 219 212 210 209 207 204 201 201 204 204 204 204 205 207 202 198 203 202 196 201 211 214 208 211 213 215 214 216 222 225 220 218 229 229 228 237
Height
1514 1514 1516 1518 1520 1526 1527 1521 1517 1516 1515 1516 1515 1516 1517 1519 1523 1526 1521 1521 1525 1529 1533 1536 1539 1542 1544 1546 1547 1549 1550 1551 1552 1553 1553 1554 1555 1555 1556 1556 1557 1557 1557 1558 1558 1558 1558 1559 1559
1514 1515 1517 1518 1523 1533 1528 1518 1516 1514 1513 1513 1514 1515 1515 1517 1518 1519 1519 1522 1526 1530 1534 1537 1540 1543 1545 1547 1548 1550 1551 1552 1553 1554 1555 1555 1556 1556 1557 1558 1558 1559 1559 1559 1559 1560 1560 1560 1561
1515 1516 1518 1519 1525 1530 1524 1514 1513 1512 1512 1512 1514 1515 1516 1517 1518 1518 1520 1523 1527 1531 1534 1538 1541 1543 1546 1548 1549 1551 1552 1553 1554 1555 1556 1556 1557 1558 1558 1559 1559 1560 1560 1561 1561 1561 1562 1562 1563
1516 1517 1518 1523 1525 1520 1515 1510 1509 1511 1512 1512 1514 1516 1516 1516 1517 1518 1521 1524 1528 1532 1535 1538 1541 1544 1546 1548 1550 1551 1553 1554 1555 1556 1557 1557 1558 1558 1559 1560 1560 1561 1562 1562 1563 1563 1564 1564 1564
1516 1517 1522 1528 1524 1516 1511 1508 1508 1508 1509 1511 1512 1514 1515 1517 1517 1519 1521 1525 1529 1533 1536 1539 1542 1544 1546 1548 1550 1552 1553 1554 1555 1556 1557 1558 1559 1559 1560 1561 1561 1562 1562 1563 1564 1564 1565 1565 1566
1517 1519 1529 1532 1522 1514 1511 1509 1508 1509 1510 1511 1512 1514 1515 1517 1517 1520 1523 1526 1530 1533 1537 1539 1542 1544 1547 1549 1550 1552 1553 1555 1556 1556 1557 1558 1559 1560 1560 1561 1562 1562 1563 1564 1564 1565 1566 1566 1567
1519 1522 1528 1525 1522 1515 1511 1509 1509 1509 1510 1511 1511 1513 1513 1515 1517 1520 1523 1527 1531 1535 1537 1540 1542 1545 1547 1549 1551 1552 1554 1555 1556 1557 1558 1558 1559 1560 1560 1561 1562 1563 1563 1564 1565 1566 1566 1567 1568
1518 1522 1525 1525 1520 1515 1510 1509 1509 1510 1510 1510 1511 1511 1512 1514 1517 1520 1524 1527 1532 1536 1538 1540 1543 1545 1547 1549 1551 1553 1554 1555 1556 1557 1558 1558 1559 1560 1560 1561 1562 1562 1563 1564 1565 1566 1566 1567 1568
1518 1525 1528 1521 1516 1511 1508 1509 1509 1510 1510 1510 1510 1510 1511 1514 1517 1521 1525 1528 1532 1535 1538 1541 1543 1545 1548 1550 1551 1553 1554 1555 1556 1557 1558 1558 1559 1559 1560 1560 1561 1562 1562 1563 1564 1565 1566 1567 1567
1517 1525 1518 1509 1506 1506 1506 1508 1508 1509 1510 1510 1509 1510 1512 1514 1517 1520 1524 1527 1531 1534 1538 1541 1543 1545 1548 1550 1551 1552 1554 1555 1556 1557 1558 1558 1559 1559 1559 1560 1560 1561 1561 1562 1563 1564 1565 1566 1567
1513 1515 1508 1504 1503 1504 1505 1506 1507 1507 1509 1507 1507 1509 1512 1514 1517 1520 1523 1527 1530 1533 1537 1540 1543 1545 1548 1550 1551 1552 1554 1555 1556 1557 1557 1557 1558 1558 1558 1558 1559 1559 1560 1561 1561 1562 1563 1565 1566
1511 1507 1505 1503 1502 1503 1505 1506 1507 1506 1507 1506 1506 1507 1510 1513 1516 1520 1523 1527 1530 1533 1537 1540 1543 1545 1548 1549 1551 1552 1554 1555 1556 1556 1557 1556 1556 1557 1557 1557 1557 1558 1558 1559 1560 1561 1562 1563 1564
1508 1505 1503 1502 1502 1503 1505 1506 1507 1506 1505 1505 1507 1508 1510 1513 1515 1519 1523 1527 1530 1534 1536 1539 1542 1545 1547 1549 1551 1552 1553 1555 1555 1556 1555 1555 1555 1555 1555 1555 1555 1556 1557 1557 1558 1559 1560 1561 1562
1505 1504 1504 1503 1503 1504 1506 1507 1508 1506 1505 1505 1507 1508 1510 1513 1516 1518 1522 1526 1530 1533 1536 1539 1541 1544 1547 1549 1551 1552 1554 1554 1555 1555 1554 1554 1554 1553 1553 1553 1554 1554 1555 1556 1557 1558 1559 1560 1561
1504 1506 1506 1505 1505 1505 1507 1509 1507 1505 1506 1506 1508 1509 1510 1512 1515 1518 1521 1525 1529 1532 1535 1538 1541 1544 1547 1549 1551 1552 1553 1554 1554 1554 1553 1552 1552 1552 1552 1552 1552 1553 1553 1554 1555 1556 1557 1558 1559
1505 1510 1514 1506 1505 1505 1510 1513 1506 1505 1506 1507 1508 1509 1510 1512 1515 1518 1521 1525 1529 1532 1534 1538 1540 1543 1546 1549 1550 1552 1553 1554 1554 1553 1553 1552 1552 1551 1551 1551 1551 1552 1553 1553 1554 1555 1556 1557 1558
1512 1518 1515 1509 1504 1505 1508 1509 1505 1505 1506 1507 1508 1509 1510 1513 1515 1518 1521 1524 1528 1531 1534 1537 1540 1543 1546 1548 1551 1552 1553 1553 1553 1553 1553 1552 1552 1551 1551 1551 1551 1551 1552 1553 1553 1554 1555 1556 1556
1517 1516 1513 1511 1505 1505 1508 1508 1504 1505 1506 1507 1507 1508 1510 1512 1514 1517 1520 1523 1527 1530 1534 1537 1540 1543 1546 1548 1550 1552 1552 1553 1553 1553 1553 1552 1552 1551 1550 1550 1550 1551 1551 1552 1552 1553 1553 1554 1555
1507 1511 1513 1508 1503 1506 1508 1508 1504 1504 1505 1506 1507 1507 1509 1511 1513 1516 1519 1522 1526 1529 1533 1537 1540 1542 1545 1548 1550 1551 1552 1553 1553 1553 1553 1553 1552 1551 1551 1550 1550 1551 1551 1551 1552 1552 1552 1553 1553
1506 1511 1511 1506 1503 1505 1508 1508 1504 1503 1503 1504 1505 1506 1507 1510 1513 1516 1518 1522 1525 1529 1533 1537 1539 1542 1545 1547 1549 1551 1552 1553 1553 1553 1553 1553 1553 1552 1551 1551 1550 1550 1551 1551 1551 1551 1551 1552 1552
1505 1508 1507 1508 1506 1507 1509 1511 1507 1504 1503 1504 1505 1505 1506 1508 1511 1514 1517 1521 1525 1528 1532 1536 1539 1542 1545 1547 1549 1550 1551 1552 1553 1553 1553 1553 1553 1552 1552 1552 1551 1551 1551 1551 1551 1551 1551 1551 1551
1507 1500 1501 1506 1514 1521 1517 1527 1511 1505 1504 1503 1503 1504 1505 1507 1510 1513 1516 1520 1523 1527 1532 1536 1539 1542 1544 1546 1548 1549 1550 1551 1552 1552 1552 1553 1552 1552 1552 1552 1552 1551 1551 1551 1550 1550 1550 1550 1550
1500 1500 1504 1509 1516 1523 1521 1527 1518 1507 1506 1502 1501 1502 1504 1506 1509 1511 1514 1518 1522 1527 1531 1535 1538 1541 1544 1545 1547 1548 1549 1550 1551 1551 1551 1551 1552 1552 1552 1552 1552 1552 1551 1551 1550 1550 1550 1550 1550
1498 1504 1511 1519 1525 1532 1523 1527 1522 1509 1502 1498 1498 1500 1502 1505 1508 1511 1514 1518 1522 1526 1530 1533 1537 1539 1542 1544 1546 1547 1548 1549 1549 1549 1550 1550 1550 1551 1551 1552 1552 1551 1551 1551 1550 1550 1550 1549 1549
1500 1515 1532 1533 1540 1535 1523 1525 1519 1498 1494 1494 1495 1497 1500 1504 1507 1510 1513 1517 1520 1524 1528 1532 1535 1537 1540 1542 1544 1545 1546 1547 1547 1548 1548 1548 1549 1550 1550 1550 1551 1551 1550 1550 1550 1550 1549 1549 1549
1502 1511 1530 1539 1541 1534 1524 1524 1507 1492 1490 1491 1493 1496 1499 1502 1505 1508 1512 1515 1519 1523 1526 1529 1532 1535 1538 1540 1542 1543 1544 1545 1545 1546 1546 1547 1547 1548 1549 1549 1549 1549 1549 1549 1549 1549 1549 1548 1548
1503 1510 1511 1527 1531 1536 1528 1516 1500 1490 1490 1490 1492 1495 1497 1500 1503 1507 1510 1514 1517 1521 1524 1527 1530 1533 1535 1538 1540 1541 1542 1543 1543 1544 1544 1545 1546 1546 1546 1547 1547 1547 1547 1547 1547 1547 1547 1547 1547
1494 1504 1518 1527 1536 1538 1527 1519 1512 1495 1491 1490 1491 1492 1494 1498 1501 1504 1508 1511 1515 1518 1522 1525 1528 1530 1533 1535 1537 1538 1539 1540 1541 1542 1542 1543 1543 1544 1544 1544 1545 1545 1545 1545 1545 1545 1545 1545 1544
1499 1506 1515 1526 1528 1537 1535 1522 1494 1490 1486 1487 1487 1488 1491 1494 1497 1501 1504 1508 1512 1516 1519 1522 1524 1527 1529 1531 1533 1535 1536 1538 1538 1539 1539 1540 1541 1541 1541 1542 1542 1542 1542 1542 1542 1542 1542 1542 1541
1492 1498 1510 1520 1524 1530 1532 1520 1485 1484 1483 1483 1484 1485 1488 1491 1494 1498 1501 1505 1508 1512 1515 1517 1520 1523 1525 1528 1530 1531 1533 1534 1535 1535 1536 1537 1538 1538 1539 1539 1539 1539 1539 1539 1539 1539 1539 1538 1538